DL9GJ-4 Weather Reports


time (UTC)temp
C
wind
direction
speed
KPH
gust
KPH
rain 1hr
cm
rain 24hr
cm
rain mn
cm
humidity
%
barometer
mb
20260906110036 23 46 4.8 4.8 0.00 0.08 0.00 22 1023.0
20260906110000 23 46 4.8 4.8 0.00 0.08 0.00 22 1023.0
20260906105401 23 51 3.2 4.8 0.00 0.08 0.00 24 1024.0
20260906104755 23 53 4.8 4.8 0.00 0.08 0.00 24 1024.0
20260906102951 22 32 3.2 4.8 0.00 0.08 0.00 25 1024.0
20260906101745 22 39 4.8 4.8 0.00 0.08 0.00 31 1024.0
20260906101143 22 45 3.2 4.8 0.00 0.08 0.00 31 1024.0
20260906100544 22 35 4.8 4.8 0.00 0.08 0.00 31 1024.0
20260906095340 22 35 4.8 4.8 0.00 0.08 0.00 35 1024.0
20260906094735 22 41 3.2 3.2 0.00 0.08 0.00 39 1024.0
20260906091724 21 46 4.8 4.8 0.00 0.08 0.00 53 1024.0
20260906091117 21 46 4.8 4.8 0.00 0.08 0.00 57 1024.0
20260906085912 21 41 3.2 4.8 0.00 0.08 0.00 62 1024.0
20260906082859 19 189 3.2 3.2 0.00 0.08 0.00 69 1024.0
20260906073436 15 201 0.0 0.0 0.00 0.08 0.00 73 1024.0
20260906072833 15 201 0.0 0.0 0.00 0.08 0.00 73 1024.0
20260906071031 14 201 0.0 0.0 0.00 0.08 0.00 72 1024.0
20260906065821 13 202 0.0 0.0 0.00 0.08 0.00 71 1024.0
20260906065219 13 201 0.0 0.0 0.00 0.08 0.00 71 1024.0
20260906064619 12 201 0.0 0.0 0.00 0.08 0.00 71 1024.0
20260906062811 12 201 0.0 0.0 0.00 0.08 0.00 71 1024.0
20260906061605 11 202 0.0 0.0 0.00 0.08 0.00 71 1024.0
20260906055800 11 201 0.0 0.0 0.00 0.08 0.00 70 1024.0
20260906052753 10 201 0.0 0.0 0.00 0.08 0.00 68 1024.0
20260906052150 10 202 0.0 0.0 0.00 0.08 0.00 68 1024.0
20260906051548 10 201 0.0 0.0 0.00 0.08 0.00 67 1024.0
20260906050945 10 201 0.0 0.0 0.00 0.08 0.00 69 1024.0
20260906050347 10 201 0.0 0.0 0.00 0.08 0.00 69 1024.0
20260906045745 10 202 0.0 0.0 0.00 0.08 0.00 68 1024.0
20260906044538 10 202 0.0 0.0 0.00 0.08 0.00 68 1024.0
20260906043937 10 201 0.0 0.0 0.00 0.08 0.00 68 1024.0
20260906043336 10 201 0.0 0.0 0.00 0.08 0.00 68 1024.0
20260906042811 10 200 0.0 0.0 0.00 0.08 0.00 67 1024.0
20260906042735 10 200 0.0 0.0 0.00 0.08 0.00 67 1024.0
20260906042133 10 201 0.0 0.0 0.00 0.08 0.00 67 1024.0
20260906040326 10 201 0.0 0.0 0.00 0.08 0.00 68 1024.0
20260906035723 10 201 0.0 0.0 0.00 0.08 0.00 67 1024.0
20260906034523 10 201 0.0 0.0 0.00 0.08 0.00 68 1024.0
20260906033318 10 201 0.0 0.0 0.00 0.08 0.00 66 1024.0
20260906030909 10 201 0.0 0.0 0.00 0.08 0.00 66 1024.0
20260906030313 10 202 0.0 0.0 0.00 0.08 0.00 66 1024.0
20260906030304 10 202 0.0 0.0 0.00 0.08 0.00 66 1024.0
20260906025102 10 201 0.0 0.0 0.00 0.08 0.00 66 1024.0
20260906023247 11 201 0.0 0.0 0.00 0.08 0.00 66 1024.0
20260906022645 11 201 0.0 0.0 0.00 0.08 0.00 65 1024.0
20260906022045 11 201 0.0 0.0 0.00 0.08 0.00 66 1024.0
20260906021442 11 200 0.0 0.0 0.00 0.08 0.00 66 1024.0
20260906020231 10 200 0.0 0.0 0.00 0.08 0.00 65 1024.0
20260906014423 11 201 0.0 3.2 0.00 0.08 0.00 64 1024.0
20260906013815 11 201 0.0 0.0 0.00 0.08 0.00 65 1024.0
20260906013218 11 201 0.0 0.0 0.00 0.08 0.00 64 1024.0
20260906012608 11 201 0.0 0.0 0.00 0.08 0.00 64 1024.0
20260906005000 11 201 4.8 4.8 0.00 0.08 0.00 61 1024.0
20260906003750 11 201 0.0 3.2 0.00 0.08 0.00 62 1024.0
20260906001942 11 201 0.0 3.2 0.00 0.08 0.00 62 1024.0
20260906001342 11 201 3.2 3.2 0.00 0.08 0.00 62 1024.0
20260906000738 11 202 0.0 0.0 0.00 0.08 0.00 62 1024.0
20260905234331 12 201 0.0 0.0 0.00 0.08 0.00 61 1025.0
20260905233727 12 201 4.8 4.8 0.00 0.08 0.00 60 1024.0
20260905231925 11 201 0.0 0.0 0.00 0.08 0.00 60 1025.0
20260905231320 11 201 0.0 3.2 0.00 0.08 0.00 58 1025.0
20260905230718 12 201 0.0 3.2 0.00 0.08 0.00 59 1025.0
20260905230116 12 201 0.0 0.0 0.00 0.08 0.00 59 1025.0
20260905224906 12 201 0.0 0.0 0.00 0.08 0.00 58 1025.0
20260905222454 12 201 0.0 0.0 0.00 0.08 0.00 58 1025.0
20260905221852 12 201 0.0 3.2 0.00 0.08 0.00 58 1025.0
20260905220651 13 202 0.0 0.0 0.00 0.08 0.00 58 1025.0
20260905220046 13 201 0.0 0.0 0.00 0.00 0.00 58 1025.0
20260905215441 12 201 0.0 3.2 0.00 0.00 0.00 57 1024.0
20260905214236 13 201 0.0 3.2 0.00 0.00 0.00 56 1024.0
20260905213628 13 201 0.0 0.0 0.00 0.00 0.00 56 1024.0
20260905213027 13 201 3.2 3.2 0.00 0.00 0.00 55 1024.0
20260905212426 13 201 0.0 0.0 0.00 0.00 0.00 55 1024.0
20260905205414 13 201 0.0 0.0 0.00 0.00 0.00 54 1024.0
20260905204206 13 201 4.8 4.8 0.00 0.00 0.00 53 1024.0
20260905202405 14 201 0.0 3.2 0.00 0.00 0.00 52 1024.0
20260905195956 14 201 0.0 0.0 0.00 0.00 0.00 53 1024.0
20260905195352 14 201 3.2 3.2 0.00 0.00 0.00 52 1024.0
20260905194753 14 201 0.0 0.0 0.00 0.00 0.00 52 1024.0
20260905193548 14 201 0.0 0.0 0.00 0.00 0.00 52 1024.0
20260905192346 14 201 0.0 3.2 0.00 0.00 0.00 51 1024.0
20260905191742 14 201 0.0 0.0 0.00 0.00 0.00 51 1024.0
20260905191140 14 201 0.0 0.0 0.00 0.00 0.00 51 1024.0
20260905190538 15 201 0.0 0.0 0.00 0.00 0.00 51 1024.0
20260905185337 15 202 0.0 0.0 0.00 0.00 0.00 50 1024.0
20260905184735 15 201 0.0 0.0 0.00 0.00 0.00 50 1024.0
20260905184133 15 201 0.0 0.0 0.00 0.00 0.00 50 1024.0
20260905182326 16 201 0.0 0.0 0.00 0.00 0.00 50 1023.0
20260905181721 16 201 0.0 0.0 0.00 0.00 0.00 50 1023.0
20260905181118 16 201 0.0 3.2 0.00 0.00 0.00 51 1023.0
20260905175914 16 203 4.8 4.8 0.00 0.00 0.00 51 1023.0
20260905173503 16 202 4.8 6.4 0.00 0.00 0.00 48 1023.0
20260905172902 17 188 6.4 6.4 0.00 0.00 0.00 48 1023.0
20260905171658 17 164 4.8 6.4 0.00 0.00 0.00 49 1023.0
20260905165246 16 192 4.8 4.8 0.00 0.00 0.00 53 1023.0
20260905164643 16 180 4.8 4.8 0.00 0.00 0.00 52 1023.0
20260905164047 -17 211 8.0 9.7 0.00 0.00 0.00 53 1023.0
20260905164040 16 211 8.0 9.7 0.00 0.00 0.00 53 1023.0
20260905163440 16 154 4.8 6.4 0.00 0.00 0.00 54 1023.0
20260905162840 16 181 4.8 6.4 0.00 0.00 0.00 53 1023.0
20260905161635 16 169 0.0 4.8 0.00 0.00 0.00 52 1023.0
20260905155228 16 185 3.2 4.8 0.00 0.00 0.00 41 1023.0
20260905153415 17 300 4.8 4.8 0.00 0.00 0.00 35 1023.0
20260905152812 17 238 4.8 6.4 0.00 0.00 0.00 34 1023.0
20260905151649 17 132 4.8 8.0 0.00 0.00 0.00 34 1023.0
20260905151604 17 132 4.8 8.0 0.00 0.00 0.00 34 1023.0
20260905150358 18 207 9.7 11.3 0.00 0.00 0.00 34 1023.0
20260905145754 18 160 8.0 8.0 0.00 0.00 0.00 35 1023.0
20260905143948 19 217 8.0 8.0 0.00 0.00 0.00 45 1023.0
20260905141537 19 161 6.4 6.4 0.00 0.00 0.00 45 1022.0
20260905140935 19 201 4.8 4.8 0.00 0.00 0.00 46 1022.0
20260905140330 20 204 3.2 3.2 0.00 0.00 0.00 46 1022.0
20260905135726 20 196 3.2 3.2 0.00 0.00 0.00 45 1022.0
20260905135125 20 196 3.2 4.8 0.00 0.00 0.00 45 1022.0
20260905133922 19 176 3.2 9.7 0.00 0.00 0.00 45 1022.0
20260905132711 19 182 4.8 4.8 0.00 0.00 0.00 45 1022.0
20260905130301 19 159 6.4 6.4 0.00 0.00 0.00 51 1022.0
20260905125657 18 192 8.0 9.7 0.00 0.00 0.00 53 1022.0
20260905122649 17 141 0.0 0.0 0.00 0.00 0.00 56 1022.0
20260905122049 17 141 0.0 3.2 0.00 0.00 0.00 55 1022.0
20260905120843 16 141 4.8 4.8 0.00 0.00 0.00 53 1023.0
20260905120240 16 141 4.8 4.8 0.00 0.00 0.00 53 1023.0
20260905115640 16 141 3.2 4.8 0.00 0.00 0.00 53 1023.0
20260905113229 16 141 3.2 4.8 0.00 0.00 0.00 52 1022.0
20260905111424 17 141 3.2 4.8 0.00 0.00 0.00 51 1022.0